sat.trackr.live / text

‹ back to catalog

STARLINK-5433

NORAD 54793 · 2022-175AM

PAYLOAD ACTIVE UNKNOWN

§ Identity

Operator
Country
US
Launch date
2022-12-17
Launch site
AFETR
Launch vehicle
Mass (kg)
RCS (m²)

Purposes: comms

External: N2YO · Heavens-Above · Gunter

§ Orbital elements

Epoch: 2026-09-19T14:38:53.393280Z

Period
93.79 min
Inclination
53.1603°
Eccentricity
0.0001079
Mean motion
15.35404105 rev/d
Perigee alt
459.0 km
Apogee alt
460.5 km
Semi-major
6,837.9 km
B*
4.5637e-4
RAAN
221.7559°
Arg perigee
91.4720°
Mean anomaly
268.6406°
Rev number
1,151

§ Raw data

STARLINK-54331 54793U 22175AM  26262.61034020  .00015573  00000+0  45637-3 0  99972 54793  53.1603 221.7559 0001079  91.4720 268.6406 15.35404105 11517

JSON: /api/v1/satellites/54793 · /tle

For live sub-satellite position, see the globe view (requires WebGL).

§ Visibility from observer

Set your observer location to see the next 7 days of passes ≥ 10°. The values pass through the URL so the page stays shareable.

No JS? Fill the form by hand. The geolocation button needs JavaScript.